Guildford, United Kingdom

3:51 PM BST on September 04, 2015 (GMT +0100)
Chilworth | | Change Station
CLOSE
Current Station
Personal Weather Station
Location: Chilworth,
Elevation: 157 ft
Nearby Weather Stations

Elev 157 ft 51.21 °N, 0.55 °W | Updated 5 seconds ago

Partly Cloudy
Partly Cloudy
60.6 °F
Feels Like 60.6 °F
N
3.1
Wind Variable Wind from West
Gusts 5.4 mph

Today
High -- | Low -- °F
--% Chance of Precip.
Yesterday
High -- | Low -- °F
Precip. -- in
6:19 AM 7:42 PM
Waning Gibbous, 59% visible
Pressure 30.06 in
Visibility 6.2 miles
Clouds Few 4500 ft
Dew Point 48 °F
Humidity 63%
Rainfall 0.00 in
Snow Depth Not available.
UV 4 out of 12
Pollen Not available.
Air Quality Not available.
Flu Activity Not available.
METAR EGLF 041420Z 34008KT 300V360 9999 FEW045 15/09 Q1018
Pressure 30.06 in
Visibility 6.2 miles
Clouds Few 4500 ft
Dew Point 48 °F
Humidity 63%
Rainfall 0.00 in
Snow Depth Not available.
UV 4 out of 12
Pollen Not available.
Air Quality Not available.
Flu Activity Not available.
METAR EGLF 041420Z 34008KT 300V360 9999 FEW045 15/09 Q1018

10-Day Weather Forecast

×

Almanac

Astronomy

Sep. 04, 2015 Rise Set
Actual Time
Civil Twilight
Nautical Twilight
Astronomical Twilight
Moon
Length of Visible Light
Length of Day
Tomorrow will be .
, % of the Moon is Illuminated

Today's Extremes

Country Highs Country Lows

Community

WunderPhotos

Upload Photos

1,852,187 photos uploaded!

WunderBlogs® & News

Nearby

Air Quality

  Air Quality AQ Index Pollutant
Not available.

Snow Depth

Station Depth Elevation

Earthquake Activity

City Distance Mag. Time & Date
Minimum magnitude displayed is 2.5.

Coastal Water Temperatures

Place Temperature

Stations

Nearby Weather Stations

Station Location Temp. Windchill Dew Point Humidity Wind Precip. Elev Updated Type